Tracking 19149 objects as of 22-Apr-2018
HD Live streaming from Space Station
objects crossing your sky now

COSMOS 1856

Track COSMOS 1856 now!
10-day predictions
COSMOS 1856 is classified as:


NORAD ID: 18117
Int'l Code: 1987-051E
Perigee: 1,438.4 km
Apogee: 1,484.1 km
Inclination: 74.0 °
Period: 115.0 minutes
Semi major axis: 7832 km
RCS: 0.6718 m2 (medium)
Launch date: June 16, 1987
Source: Commonwealth of Independent States (former USSR) (CIS)
Launch site: PLESETSK MISSILE AND SPACE COMPLEX (PKMTR)
aabbcc
Your satellite tracking list
Your tracking list is empty




NASA's NSSDC Master Catalog

Two Line Element Set (TLE):
1 18117U 87051E   18111.84964667 -.00000000 +00000-0 +10005-3 0  9991
2 18117 074.0038 236.4426 0029125 049.1835 113.0661 12.52484494410442
Source of the keplerian elements: AFSPC